Home > Weather > Hampton > Past weeks

Flag for U.S.A. Weather for the Past 2 Weeks in Hampton, Virginia, U.S.A.

Now
24 °F

Sunny.


Feels Like: 15 °F
Forecast: 18 / 25 °F
Wind: 7 mph from North

Location: Langley Air Force Base

Current Time: Feb 14, 2016 at 12:33:59 PM

Latest Report: Feb 14, 2016 at 11:58 AM


Visibility: 10 mi

Pressure: 30.58 "Hg

Humidity: 33%

Dew point: -1 °F

Location of HamptonLocation

Historic Weather in Hampton — Graph

°F

Hampton Temperature Yesterday

Maximum temperature yesterday: 31 °F (at 1:58 PM)
Minimum temperature yesterday: 18 °F (at 11:58 PM)
Average temperature yesterday: 26 °F

High & Low Weather Summary for the Past Weeks

 TemperatureHumidityPressure
High72 °F (Feb 1, 2:58 PM)100% (Feb 3, 9:03 PM)30.59 "Hg (Feb 3, 9:03 PM)
Low15 °F (Feb 14, 6:58 AM)22% (Feb 13, 5:58 PM)29.55 "Hg (Feb 9, 5:03 AM)
Average41 °F67%30.06 "Hg
* Reported Jan 30 10:58 AM — Feb 14 10:58 AM, Hampton, Weather by CustomWeather, © 2016

Note: Actual official high and low records may vary slightly from our data, if they occured in-between our weather recording intervals... More about our weather records

Advertising

Hampton Weather History for the Previous 24 Hours

 ConditionsComfort  
Time TempWeatherWind HumidityBarometerVisibility
10:58 AM
Sun, Feb 14
22 °FSunny.9 mph35%30.59 "Hg10 mi
9:58 AM20 °FSunny.16 mph37%30.59 "Hg10 mi
8:58 AM19 °FSunny.12 mph40%30.59 "Hg10 mi
7:58 AM17 °FSunny.16 mph43%30.58 "Hg10 mi
6:58 AM15 °FSunny.17 mph42%30.56 "Hg10 mi
5:58 AM16 °FClear.13 mph40%30.55 "Hg10 mi
4:58 AM16 °FClear.18 mph38%30.52 "Hg10 mi
3:58 AM16 °FClear.18 mph36%30.49 "Hg10 mi
2:58 AM16 °FClear.15 mph39%30.48 "Hg10 mi
1:58 AM17 °FClear.13 mph37%30.48 "Hg10 mi
12:58 AM18 °FClear.21 mph37%30.46 "Hg10 mi
11:58 PM
Sat, Feb 13
18 °FClear.15 mph38%30.46 "Hg10 mi
10:58 PM19 °FClear.12 mph35%30.45 "Hg10 mi
9:58 PM20 °FClear.13 mph32%30.44 "Hg10 mi
8:58 PM22 °FClear.14 mph30%30.42 "Hg10 mi
7:58 PM23 °FClear.23 mph29%30.39 "Hg10 mi
6:58 PM25 °FClear.15 mph31%30.35 "Hg10 mi
5:58 PM27 °FClear.8 mph22%30.32 "Hg10 mi
4:58 PM29 °FSunny.16 mph23%30.28 "Hg10 mi
3:58 PM30 °FSunny.17 mph24%30.25 "Hg10 mi
2:58 PM30 °FPassing clouds.21 mph29%30.24 "Hg10 mi
1:58 PM31 °FSunny.18 mph28%30.23 "Hg10 mi
12:58 PM30 °FPartly sunny.18 mph32%30.24 "Hg10 mi
Weather by CustomWeather, © 2016

See weather overviewHow to use our weather pages